Flag for Brazil Weather past 2 weeks in Porto Alegre, Rio Grande do Sul, Brazil

Now
72 °F

Clear.


Feels Like: 75 °F
Forecast: N/A
Wind: 2 mph from East

Location: Porto Alegre Aero-Porto

Current Time: Jul 29, 2015 at 7:22:34 PM

Latest Report: Jul 29, 2015 at 6:00 PM


Visibility: 10 mi

Pressure: 30.07 "Hg

Humidity: 69%

Dew point: 61 °F

Location of Porto AlegreLocation

Historic Weather in Porto Alegre — Graph

°F

Porto Alegre temperature yesterday

Maximum temperature yesterday: 79 °F (at 4:00 PM)
Minimum temperature yesterday: 59 °F (at 12:00 AM)
Average temperature yesterday: 65 °F

Past Weeks' High & Low Weather Summary

 TemperatureHumidityPressure
High79 °F (Jul 28, 4:00 PM)100% (Jul 16, 4:00 AM)30.33 "Hg (Jul 16, 4:00 AM)
Low43 °F (Jul 19, 2:00 AM)32% (Jul 19, 10:00 PM)29.89 "Hg (Jul 19, 2:00 PM)
Average60 °F85%30.14 "Hg
* Reported Jul 14 6:00 PM — Jul 29 6:00 PM, Porto Alegre, Weather by CustomWeather, © 2015

Note: Actual official high and low records may vary slightly from our data, if they occured in-between our weather recording intervals... More about our weather records

Advertising

Porto Alegre weather history for previous 24 hours

 ConditionsComfort  
Time TempWeatherWind HumidityBarometerVisibility
6:00 PM
Wed, Jul 29
72 °FClear.2 mph69%30.07 "Hg10 mi
5:00 PM73 °FClear.3 mph65%30.07 "Hg10 mi
4:00 PM73 °FSunny.3 mph69%30.07 "Hg10 mi
3:00 PM73 °FSunny.6 mph65%30.07 "Hg10 mi
2:00 PM73 °FSunny.6 mph65%30.09 "Hg10 mi
1:00 PM73 °FSunny.6 mph61%30.09 "Hg10 mi
12:00 PM72 °FClear.7 mph65%30.12 "Hg5 mi
11:00 AM70 °FClear.3 mph73%30.12 "Hg4 mi
10:00 AM66 °FClear.1 mph83%30.12 "Hg4 mi
9:00 AM63 °FClear.2 mph94%30.12 "Hg5 mi
8:00 AM59 °FClear.3 mph94%30.12 "Hg5 mi
7:00 AM55 °FClear.1 mph100%30.09 "Hg4 mi
6:00 AM55 °FFog.No wind94%30.09 "Hg1 mi
5:00 AM57 °FFog.2 mph94%30.07 "Hg1 mi
4:00 AM57 °FFog.3 mph94%30.07 "Hg1 mi
3:00 AM59 °FFog.2 mph94%30.04 "Hg3 mi
2:00 AM59 °FClear.3 mph94%30.04 "Hg4 mi
1:00 AM61 °FClear.5 mph94%30.04 "Hg4 mi
12:00 AM63 °FClear.5 mph94%30.04 "Hg4 mi
11:00 PM
Tue, Jul 28
63 °FClear.7 mph94%30.04 "Hg5 mi
10:00 PM64 °FClear.8 mph88%30.04 "Hg10 mi
9:00 PM66 °FClear.7 mph83%30.04 "Hg10 mi
8:00 PM68 °FClear.9 mph78%30.01 "Hg10 mi
7:00 PM70 °FClear.7 mph73%30.01 "Hg10 mi
Weather by CustomWeather, © 2015

See weather overviewHow to use our weather pages